| time (UTC) | temp F | wind direction | speed MPH | gust MPH | rain 1hr in | rain 24hr in | rain mn in | humidity % | barometer mb |
| 20260505124536 | 37 | 0 | 0.0 | 0.0 | 0.01 | 0.18 | 0.01 | 97 | 1004.8 |
| 20260505123031 | 37 | 235 | 1.0 | 4.0 | 0.00 | 0.17 | 0.00 | 98 | 1004.9 |
| 20260505121535 | 37 | 0 | 0.0 | 3.0 | 0.00 | 0.17 | 0.00 | 97 | 1004.8 |
| 20260505120041 | 37 | 0 | 1.0 | 3.0 | 0.00 | 0.17 | 0.00 | 97 | 1005.0 |
| 20260505114532 | 38 | 0 | 0.0 | 0.0 | 0.00 | 0.19 | 0.00 | 97 | 1005.0 |
| 20260505113031 | 37 | 0 | 0.0 | 6.0 | 0.00 | 0.19 | 0.00 | 97 | 1005.1 |
| 20260505111530 | 37 | 0 | 0.0 | 0.0 | 0.00 | 0.19 | 0.00 | 97 | 1005.4 |
| 20260505101540 | 38 | 0 | 0.0 | 0.0 | 0.00 | 0.21 | 0.00 | 97 | 1005.2 |
| 20260505100030 | 38 | 0 | 0.0 | 0.0 | 0.00 | 0.21 | 0.00 | 97 | 1005.2 |
| 20260505094536 | 39 | 0 | 0.0 | 0.0 | 0.00 | 0.23 | 0.00 | 97 | 1005.4 |
| 20260505093031 | 39 | 0 | 0.0 | 0.0 | 0.00 | 0.23 | 0.00 | 97 | 1005.4 |
| 20260505091535 | 39 | 0 | 0.0 | 3.0 | 0.00 | 0.23 | 0.00 | 97 | 1005.6 |
| 20260505090031 | 39 | 109 | 0.0 | 1.0 | 0.00 | 0.23 | 0.00 | 97 | 1005.6 |
| 20260505084530 | 39 | 0 | 0.0 | 1.0 | 0.00 | 0.25 | 0.00 | 97 | 1005.6 |
| 20260505083028 | 39 | 0 | 0.0 | 0.0 | 0.00 | 0.25 | 0.00 | 97 | 1005.6 |
| 20260505081528 | 40 | 0 | 0.0 | 0.0 | 0.00 | 0.25 | 0.00 | 97 | 1005.7 |
| 20260505080028 | 40 | 0 | 0.0 | 0.0 | 0.00 | 0.25 | 0.00 | 97 | 1005.9 |
| 20260505074531 | 40 | 0 | 0.0 | 0.0 | 0.00 | 0.27 | 0.25 | 97 | 1006.1 |
| 20260505073030 | 40 | 0 | 0.0 | 0.0 | 0.00 | 0.27 | 0.25 | 97 | 1006.0 |
| 20260505071534 | 40 | 0 | 0.0 | 0.0 | 0.00 | 0.27 | 0.25 | 97 | 1006.0 |
| 20260505070029 | 40 | 0 | 0.0 | 0.0 | 0.00 | 0.27 | 0.25 | 97 | 1006.2 |
| 20260505064530 | 40 | 0 | 0.0 | 3.0 | 0.00 | 0.30 | 0.25 | 96 | 1006.2 |
| 20260505063027 | 40 | 0 | 0.0 | 0.0 | 0.00 | 0.30 | 0.25 | 96 | 1006.2 |
| 20260505061530 | 40 | 342 | 2.0 | 5.0 | 0.00 | 0.30 | 0.25 | 96 | 1005.9 |
| 20260505060041 | 41 | 24 | 1.0 | 5.0 | 0.00 | 0.30 | 0.25 | 96 | 1006.4 |
| 20260505054557 | 41 | 331 | 0.0 | 6.0 | 0.00 | 0.32 | 0.25 | 96 | 1006.4 |
| 20260505053027 | 42 | 0 | 0.0 | 0.0 | 0.00 | 0.32 | 0.25 | 95 | 1006.4 |
| 20260505051529 | 42 | 0 | 0.0 | 2.0 | 0.00 | 0.32 | 0.25 | 95 | 1006.5 |
| 20260505041528 | 43 | 0 | 0.0 | 3.0 | 0.00 | 0.36 | 0.25 | 95 | 1007.2 |
| 20260505040030 | 43 | 348 | 0.0 | 5.0 | 0.00 | 0.36 | 0.25 | 95 | 1007.3 |
| 20260505034532 | 43 | 0 | 0.0 | 0.0 | 0.00 | 0.41 | 0.25 | 94 | 1007.5 |
| 20260505033028 | 43 | 0 | 0.0 | 3.0 | 0.00 | 0.41 | 0.25 | 95 | 1007.8 |
| 20260505031528 | 43 | 0 | 0.0 | 4.0 | 0.00 | 0.41 | 0.25 | 94 | 1007.8 |
| 20260505030028 | 43 | 0 | 0.0 | 0.0 | 0.00 | 0.41 | 0.25 | 94 | 1008.2 |
| 20260505024531 | 43 | 0 | 0.0 | 3.0 | 0.00 | 0.45 | 0.25 | 94 | 1008.5 |
| 20260505023029 | 43 | 0 | 1.0 | 4.0 | 0.00 | 0.45 | 0.25 | 94 | 1008.8 |
| 20260505021531 | 43 | 346 | 2.0 | 9.0 | 0.00 | 0.45 | 0.25 | 94 | 1009.1 |
| 20260505020028 | 43 | 5 | 0.0 | 5.0 | 0.00 | 0.45 | 0.25 | 95 | 1009.0 |
| 20260505014530 | 43 | 0 | 0.0 | 5.0 | 0.00 | 0.48 | 0.25 | 96 | 1009.2 |
| 20260505013027 | 43 | 0 | 1.0 | 5.0 | 0.00 | 0.48 | 0.25 | 97 | 1009.7 |
| 20260505011530 | 42 | 0 | 1.0 | 5.0 | 0.00 | 0.48 | 0.25 | 97 | 1010.4 |
| 20260505010033 | 42 | 0 | 0.0 | 1.0 | 0.00 | 0.48 | 0.25 | 97 | 1010.6 |
| 20260505004528 | 42 | 327 | 3.0 | 7.0 | 0.00 | 0.48 | 0.25 | 97 | 1010.7 |
| 20260505003033 | 42 | 11 | 2.0 | 6.0 | 0.00 | 0.48 | 0.25 | 97 | 1010.9 |
| 20260505001530 | 42 | 0 | 2.0 | 7.0 | 0.00 | 0.48 | 0.25 | 97 | 1011.1 |
| 20260505000029 | 42 | 42 | 1.0 | 5.0 | 0.00 | 0.48 | 0.25 | 97 | 1011.8 |
| 20260504234534 | 42 | 5 | 0.0 | 3.0 | 0.00 | 0.48 | 0.25 | 98 | 1012.0 |
| 20260504233028 | 42 | 0 | 1.0 | 5.0 | 0.00 | 0.48 | 0.25 | 98 | 1012.4 |
| 20260504231528 | 41 | 0 | 0.0 | 0.0 | 0.00 | 0.48 | 0.25 | 98 | 1012.5 |
| 20260504230030 | 41 | 0 | 0.0 | 5.0 | 0.00 | 0.48 | 0.25 | 98 | 1012.7 |
| 20260504224527 | 41 | 0 | 0.0 | 3.0 | 0.00 | 0.48 | 0.25 | 98 | 1012.8 |
| 20260504223029 | 41 | 22 | 1.0 | 5.0 | 0.00 | 0.48 | 0.25 | 98 | 1013.1 |
| 20260504221529 | 41 | 0 | 0.0 | 5.0 | 0.00 | 0.48 | 0.25 | 98 | 1013.3 |
| 20260504220039 | 41 | 0 | 0.0 | 0.0 | 0.00 | 0.48 | 0.25 | 98 | 1013.7 |
| 20260504214536 | 41 | 0 | 0.0 | 0.0 | 0.00 | 0.48 | 0.25 | 97 | 1013.9 |
| 20260504213028 | 41 | 0 | 0.0 | 0.0 | 0.00 | 0.48 | 0.25 | 98 | 1013.6 |
| 20260504211534 | 41 | 0 | 0.0 | 0.0 | 0.00 | 0.48 | 0.25 | 98 | 1013.6 |
| 20260504210030 | 41 | 0 | 0.0 | 0.0 | 0.00 | 0.48 | 0.25 | 97 | 1014.1 |
| 20260504204530 | 41 | 0 | 0.0 | 3.0 | 0.00 | 0.48 | 0.25 | 97 | 1014.3 |
| 20260504203029 | 40 | 0 | 0.0 | 0.0 | 0.00 | 0.48 | 0.25 | 97 | 1014.6 |
| 20260504201532 | 40 | 0 | 0.0 | 0.0 | 0.00 | 0.48 | 0.25 | 97 | 1015.1 |
| 20260504200030 | 40 | 0 | 0.0 | 5.0 | 0.00 | 0.48 | 0.25 | 98 | 1015.7 |
| 20260504194527 | 40 | 0 | 0.0 | 0.0 | 0.00 | 0.48 | 0.25 | 98 | 1015.9 |
| 20260504193029 | 40 | 0 | 0.0 | 0.0 | 0.00 | 0.48 | 0.25 | 97 | 1016.3 |
| 20260504191530 | 40 | 0 | 0.0 | 0.0 | 0.00 | 0.48 | 0.25 | 98 | 1016.3 |
| 20260504190028 | 40 | 0 | 0.0 | 5.0 | 0.00 | 0.48 | 0.25 | 97 | 1016.3 |
| 20260504184533 | 40 | 0 | 0.0 | 0.0 | 0.01 | 0.48 | 0.25 | 97 | 1016.2 |
| 20260504183030 | 40 | 0 | 0.0 | 5.0 | 0.02 | 0.48 | 0.25 | 97 | 1016.5 |
| 20260504181536 | 39 | 0 | 0.0 | 1.0 | 0.03 | 0.48 | 0.25 | 97 | 1016.5 |
| 20260504180030 | 39 | 0 | 0.0 | 4.0 | 0.04 | 0.48 | 0.25 | 97 | 1016.7 |
| 20260504174530 | 39 | 0 | 0.0 | 1.0 | 0.03 | 0.47 | 0.24 | 97 | 1017.1 |
| 20260504173031 | 39 | 0 | 0.0 | 0.0 | 0.03 | 0.46 | 0.23 | 97 | 1017.1 |
| 20260504171532 | 39 | 0 | 0.0 | 0.0 | 0.02 | 0.45 | 0.22 | 97 | 1017.3 |